Regional Weather Roundup
Issued by NWS

Home | Current Version | Previous Version | Graphics & Text | Print | Product List | Glossary On
Versions: 1 2 3 4 5 6 7 8 9 10 11 12 13 14 15 16 17 18 19 20 21 22 23 24 25 26 27 28 29 30 31 32 33 34 35 36 37 38 39 40 41 42 43 44 45 46 47 48 49 50
000
ASUS43 KMPX 242310
RWRMN
WEATHER ROUNDUP FOR MINNESOTA
NATIONAL WEATHER SERVICE TWIN CITIES/CHANHASSEN MN
600 PM CDT THU APR 24 2014


NOTE: "FAIR" INDICATES FEW OR NO CLOUDS BELOW 12,000 FEET WITH NO
SIGNIFICANT WEATHER AND/OR OBSTRUCTIONS TO VISIBILITY. N/A MEANS
CURRENT SKY AND/OR WEATHER CONDITIONS ARE NOT AVAILABLE.

MNZ060>063-068>070-250000-
   Twin Cities Metro

CITY           SKY/WX    TMP DP  RH WIND       PRES   REMARKS
TWIN CITIES    CLOUDY    45  41  86 W9        29.69R
ST PAUL        CLOUDY    44  42  93 W3        29.70R
CRYSTAL        CLOUDY    45  40  82 W6        29.68R
BLAINE         CLOUDY    45  45 100 W6        29.68S
EDEN PRAIRIE   CLOUDY    46  41  82 W10       29.68R
LAKEVILLE      CLOUDY    45  43  93 W9        29.68R
SOUTH ST PAUL  PTSUNNY   46  45  96 W5        29.69R
LAKE ELMO      CLOUDY    43  41  93 CALM      29.69R FOG
$$
MNZ001>005-007-008-013>017-022>024-027-028-250000-
   Northwest Minnesota

CITY           SKY/WX    TMP DP  RH WIND       PRES   REMARKS
BEMIDJI        LGT SNOW  32  32 100 CALM      29.71S VSB 3/4
HALLOCK        DRIZZLE   39  37  93 E12       29.72S
ROSEAU         LGT SNOW  34  28  80 E3        29.75S VSB 3/4
WARROAD        SNOW      34  28  80 E3        29.76S VSB 1/2
THIEF RVR FALL CLOUDY    34  30  86 E7        29.73S WCI  28
CROOKSTON      CLOUDY    39  39 100 E7        29.71F
FOSSTON        MIX PCPN  34  32  93 CALM      29.71S
DETROIT LAKES  CLOUDY    37  37 100 S6        29.70R
MOORHEAD       SUNNY     50  46  87 SE5       29.68F
PARK RAPIDS    CLOUDY    33  33 100 CALM      29.70S
$$
MNZ006-009>011-018-025>026-250000-
   North Central Minnesota

CITY           SKY/WX    TMP DP  RH WIND       PRES   REMARKS
BAUDETTE       SNOW      32  32 100 E5        29.76R VSB 1/2 WCI  27
FLAG ISLAND    MIX PCPN  34  32  93 E7        29.77R WCI  28
INTL FALLS     LGT SNOW  33  32  96 E12       29.75F VSB 1   WCI  24
WASKISH        SNOW      34  34 100 CALM      29.74S VSB 1/2
BIG FORK       CLOUDY    34  30  86 E3        29.72F VSB 1/2
LONGVILLE      MIX PCPN  34  34 100 CALM      29.70S
GRAND RAPIDS   CLOUDY    34  30  86 SE5       29.71R VSB 1   WCI  30
CRANE LAKE     RAIN      34  32  93 E5        29.79F WCI  30
ORR            LGT SNOW  32  30  93 E6        29.71F WCI  26
COOK           LGT SNOW  32  32 100 E6        29.73F VSB 1   WCI  26
$$
MNZ012-019>021-037-250000-
   Northeast Minnesota

CITY           SKY/WX    TMP DP  RH WIND       PRES   REMARKS
DULUTH         LGT SNOW  33  30  88 E20       29.71S VSB 1   WCI  21
ELY            LGT SNOW  34  30  86 E9        29.76F WCI  26
HIBBING        LGT SNOW  34  32  92 E10       29.71F FOG     WCI  26
EVELETH        LGT SNOW  34  32  93 E7        29.73F WCI  28
DULUTH HARBOR  MIX PCPN  34  30  86 NE21G28   29.75F WCI  22
TWO HARBORS    LGT SNOW  32  27  80 NE17G23   29.73F WCI  21
SILVER BAY     MIX PCPN  30  30 100 NE14G24   29.77F VSB 3/4 WCI  20
GRAND MARAIS     N/A     33  32  96 NE17      29.88F WCI  22
G MARAIS ARPRT MIX PCPN  30  27  86 E14G23    29.84F WCI  20
$$
MNZ029>031-032-039>041-046>048-054>057-064-250000-
   West Central Minnesota

CITY           SKY/WX    TMP DP  RH WIND       PRES   REMARKS
FERGUS FALLS   CLOUDY    48  39  71 SW3       29.68R
WHEATON        RAIN      48  45  87 N10       29.73R
MORRIS         MOSUNNY   52  43  71 CALM      29.69R
ALEXANDRIA     CLOUDY    47  40  76 NW7       29.70R
ELBOW LAKE     CLOUDY    49  42  76 W6        29.69S
WADENA         CLOUDY    37  36  93 CALM      29.69F
GLENWOOD       MOSUNNY   50  41  71 W6        29.70R
APPLETON       LGT RAIN  55  43  62 NW9       29.72R
BENSON         PTSUNNY   54  41  62 N6        29.70R
ORTONVILLE     LGT RAIN  52  41  66 CALM      29.71S
MADISON        MOSUNNY   57  45  62 CALM      29.69R
WILLMAR        FAIR      52  43  71 NW7       29.71R
$$
MNZ033>034-036-042>043-049>051-058-059-250000-
   Central Minnesota

CITY           SKY/WX    TMP DP  RH WIND       PRES   REMARKS
ST CLOUD       CLOUDY    44  38  79 W7        29.69S
SAUK CENTRE    CLOUDY    42  38  86 CALM      29.70S
PAYNESVILLE    CLOUDY    46  40  80 CALM      29.70S
AITKIN         LGT SNOW  34  28  80 CALM      29.69S
PINE RIVER     LGT SNOW  34  34 100 E5        29.73F WCI  30
BRAINERD       CLOUDY    39  33  79 E3        29.70F
STAPLES        CLOUDY    36  36 100 CALM      29.70S
LONG PRAIRIE   CLOUDY    39  37  93 CALM      29.70R
LITTLE FALLS   CLOUDY    37  34  87 CALM      29.70S
LITCHFIELD     PTSUNNY   48  43  81 NW10      29.69F
BUFFALO        CLOUDY    45  40  83 W5        29.70S
MAPLE LAKE     CLOUDY    45  42  90 NW5       29.70S
$$
MNZ037-044-045-052-053-250000-
   East Central Minnesota

CITY           SKY/WX    TMP DP  RH WIND       PRES   REMARKS
PRINCETON      CLOUDY    43  41  93 W5        29.69S
MORA           DRIZZLE   36  34  93 CALM      29.72R
CAMBRIDGE      LGT RAIN  45  37  76 CALM      29.67S
RUSH CITY      CLOUDY    39  38  94 NE5       29.69S
MOOSE LAKE     LGT SNOW  32  32 100 E6        29.69S WCI  26
HINCKLEY       DRIZZLE   36  36 100 NE5       29.69S
CLOQUET        LGT SNOW  34  32  93 E8G17     29.71S WCI  27
MCGREGOR       CLOUDY    34  32  93 E5        29.71R WCI  30
$$
MNZ071>073-080-081-089-090-097-098-250000-
   Southwest Minnesota

CITY           SKY/WX    TMP DP  RH WIND       PRES   REMARKS
MONTEVIDEO     MOSUNNY   55  50  82 N5        29.71S
GRANITE FALLS  MOSUNNY   54  42  62 NW8       29.71S
CANBY          MOSUNNY   55  43  64 E5        29.70F
MARSHALL       PTSUNNY   55  41  58 N10       29.69S
REDWOOD FALLS  MOSUNNY   55  43  63 NW10      29.70S
OLIVIA         MOSUNNY   52  43  71 NW10      29.69S
PIPESTONE      MOSUNNY   57  41  54 N6        29.68F
WINDOM         MOSUNNY   54  43  66 NW10      29.71S
WORTHINGTON    MOSUNNY   55  39  54 N8        29.72F
JACKSON        MOSUNNY   55  41  58 NW12G22   29.71S
TRACY          MOSUNNY   55  44  68 N7        29.70F
SLAYTON        SUNNY     55  41  60 N10       29.71S
$$
MNZ065>067-074>077-082>085-091>093-250000-
   South Central Minnesota

CITY           SKY/WX    TMP DP  RH WIND       PRES   REMARKS
MANKATO        CLOUDY    48  43  81 NW10      29.71R
NEW ULM        PTSUNNY   52  45  76 N13       29.69S
ST JAMES       PTSUNNY   55  45  67 NW13      29.71F
FAIRMONT       CLOUDY    54  43  66 NW16      29.72S
GLENCOE        CLOUDY    48  40  74 W7        29.69S
FARIBAULT      PTSUNNY   48  43  81 W9        29.70R
OWATONNA       CLOUDY    48  43  81 W9        29.69R
WASECA         CLOUDY    45  37  76 W12       29.72R
ALBERT LEA     CLOUDY    48  43  81 NW8       29.69S
$$
MNZ078>079-086>088-094>096-250000-
   Southeast Minnesota

CITY           SKY/WX    TMP DP  RH WIND       PRES   REMARKS
ROCHESTER      CLOUDY    46  41  82 NW14      29.68R HAZE
RED WING       CLOUDY    45  43  93 CALM      29.68R FOG
STANTON        CLOUDY    47  42  84 W6        29.67R
DODGE CENTER   CLOUDY    48  45  87 NW9       29.68R
WINONA         CLOUDY    43  43 100 CALM      29.68R FOG
AUSTIN         CLOUDY    48  43  81 NW10      29.68R
PRESTON        CLOUDY    47  45  90 W6        29.67R
$$
ABBREVIATIONS USED IN REMARKS
   TC - TEMPERATURES IN CELSIUS
  WCI - WIND CHILL INDEX
   HX - HEAT INDEX
  VSB - VISIBILITY
$$



USA.gov is the U.S. government's official web portal to all federal, state and local government web resources and services.